590  
ASUS44 KSJT 270715  
RWRSJT  
WEST CENTRAL TEXAS REGIONAL WEATHER ROUNDUP  
NATIONAL WEATHER SERVICE SAN ANGELO TX  
100 AM CST SAT FEB 27 2021  
 
NOTE: "FAIR" INDICATES FEW OR NO CLOUDS BELOW 12,000 FEET WITH NO  
SIGNIFICANT WEATHER AND/OR S TO VISIBILITY
.  
 
TXZ049-054-064>066-071>073-076>078-098-099-113-114-127-128-139-140-  
154-155-168>170-270800   
..LOCATIONS ACROSS WEST CENTRAL TEXAS
 
 
 
CITY SKY/WX TMP DP RH WIND PRES REMARKS
 
SAN ANGELO PTCLDY 55 49 80 S9 29.88S  
ABILENE CLOUDY 54 49 83 SE9 29.89S  
DYESS AFB CLOUDY 54 44 71 SE9 29.87S  
JUNCTION MOCLDY 57 54 89 CALM 29.92S FOG  
SWEETWATER MOCLDY 54 41 60 SE10 29.90S  
BROWNWOOD CLOUDY 55 55 100 SE6 29.92S  
COLEMAN PTSUNNY 52 49 90 S5 29.91R  
SONORA MOCLDY 50 50 100 CALM 29.95F  
OZONA FAIR 52 45 76 S5 29.93F  
BRADY CLOUDY 55 55 100 CALM 29.91S FOG  

 
 
TEXAS PANHANDLE/OKLAHOMA PANHANDLE  
 
CITY SKY/WX TMP DP RH WIND PRES REMARKS
 
AMARILLO CLEAR 35 18 49 S12 29.82S WCI 27  
BORGER CLEAR 47 25 42 S17G24 29.80S  
CANADIAN CLEAR 41 35 78 SW8 29.82S WCI 36  
DALHART CLEAR 24 13 62 SW7 29.81F WCI 16  
DUMAS SUNNY 41 15 34 S15 29.81F WCI 33  
GUYMON NOT AVBL  
HEREFORD SUNNY 31 11 43 SW6 29.86S WCI 25  
PAMPA SUNNY 37 32 82 S10 29.83S WCI 30  
PERRYTON CLEAR 28 21 74 S8 29.79R WCI 20  

 
 
SOUTHERN PANHANDLE/SOUTH PLAINS/ROLLING PLAINS  
 
CITY SKY/WX TMP DP RH WIND PRES REMARKS
 
LUBBOCK PTCLDY 40 18 41 W6 29.87F WCI 36  
SNYDER MOCLDY 52 31 45 SW3 29.88S  
CHILDRESS CLEAR 41 32 70 S12 29.84F WCI 34  
SEMINOLE PTSUNNY 46 18 33 SW9 29.93F  

 
 
PERMIAN BASIN  
 
CITY SKY/WX TMP DP RH WIND PRES REMARKS
 
MIDLAND MOCLDY 49 31 49 CALM 29.89S  
ODESSA MOCLDY 49 31 49 SW5 29.90F  
WINK MOCLDY 47 31 53 CALM 29.87F  

 
 
FAR WEST/SOUTHWEST MOUNTAINS/TRANS PECOS  
 
CITY SKY/WX TMP DP RH WIND PRES REMARKS
 
ALPINE PTSUNNY 52 23 32 W6 30.00F  
DRYDEN N/A 53 47 79 MISG 29.91F  
EL PASO PTCLDY 45 5 19 SE7 29.90S  
FORT STOCKTON CLOUDY 60 41 49 S12 29.89F  
GUADALUPE PASS CLEAR 48 -3 12 W12 29.96S  
MARFA MOCLDY 47 25 42 CALM 29.98F  
PECOS CLOUDY 53 31 42 N3 29.88F  

 
 
DALLAS/FORT WORTH METROPLEX  
 
CITY SKY/WX TMP DP RH WIND PRES REMARKS
 
DFW AIRPORT CLOUDY 52 50 93 SE3 29.91S  
FTW MEACHAM CLOUDY 50 49 96 SE5 29.90F  
DAL-EXECUTIVE CLOUDY 53 50 89 CALM 29.91F  
GRAND PRAIRIE CLOUDY 52 52 100 CALM 29.93F  
ADDISON CLOUDY 53 50 92 E3 29.94S  
MESQUITE PTSUNNY 52 51 98 SE3 29.94S  
LANCASTER PTSUNNY 52 50 95 CALM 29.94S  

 
 
NORTH CENTRAL TEXAS  
 
CITY SKY/WX TMP DP RH WIND PRES REMARKS
 
SHRMAN/DENISON PTSUNNY 51 48 90 SE6 29.94F FOG  
GAINESVILLE MOCLDY 46 46 99 SE3 29.94F FOG  
BRIDGEPORT CLOUDY 50 49 97 CALM 29.92F  
DENTON CLOUDY 49 47 93 S3 29.93S  
WAXAHACHIE PTSUNNY 53 52 94 CALM 29.94S  
GRANBURY CLOUDY 53 50 89 SE6 29.93S  

 
 
WESTERN NORTH TEXAS  
 
CITY SKY/WX TMP DP RH WIND PRES REMARKS
 
WICHITA FALLS PTCLDY 43 42 97 SE7 29.87F WCI 39  
VERNON PTSUNNY 42 42 98 CALM 29.88S  
BRECKENRIDGE CLOUDY 56 51 84 S7 29.89S  
COMANCHE CLOUDY 51 51 100 S6 29.92F FOG  

 
 
CENTRAL AND SOUTH CENTRAL TEXAS  
 
CITY SKY/WX TMP DP RH WIND PRES REMARKS
 
AUSTIN/BERGSTM CLOUDY 58 53 84 CALM 29.92S  
WACO MOCLDY 57 53 86 E5 29.93R  
HILLSBORO CLOUDY 57 57 100 CALM 29.92F  
TEMPLE CLOUDY 55 54 94 E3 29.94S  
KILLEEN-GRAY CLOUDY 57 53 88 CALM 29.91S  
FORT HOOD CLOUDY 57 54 88 SE3 29.92S  
GEORGETOWN CLOUDY 58 53 84 CALM 29.95S  
LAGO VISTA CLOUDY 57 55 93 CALM 29.93S  
SAN MARCOS CLOUDY 57 55 93 NE3 29.93F  
NEW BRAUNFELS CLOUDY 59 53 80 NE5 29.90F  
RANDOLPH AFB CLOUDY 58 57 95 NE6 29.89F  
SAN ANTONIO LGT RAIN 59 57 93 NE5 29.91F FOG  
STINSON CLOUDY 58 56 93 NE6 29.88F  
PLEASANTON NOT AVBL  
LA GRANGE CLOUDY 62 59 92 CALM 29.90F  
GIDDINGS NOT AVBL  

 
 
EAST TEXAS  
 
CITY SKY/WX TMP DP RH WIND PRES REMARKS
 
PARIS FOG 45 45 100 E6 29.96R VSB 3/4  
CLARKSVILLE NOT AVBL  
TYLER CLOUDY 55 53 93 E5 29.95F  
LONGVIEW LGT RAIN 54 52 93 N3 29.97R  
PALESTINE CLOUDY 55 55 100 CALM 29.95F FOG  
NACOGDOCHES CLOUDY 62 60 93 CALM 29.96S  

 
 
TEXAS HILL COUNTRY AND EDWARDS PLATEAU  
 
CITY SKY/WX TMP DP RH WIND PRES REMARKS
 
LLANO CLOUDY 57 54 88 CALM 29.91F  
HORSESHOE BAY CLOUDY 57 55 93 CALM 29.93S  
KERRVILLE FOG 56 54 92 CALM 29.92F VSB 1/2  
FREDERICKSBRG FOG 57 57 100 CALM 29.92F VSB 1/4  
ROCKSPRINGS FOG 55 55 100 SE5 29.96S VSB<1/4  
HONDO CLOUDY 60 57 89 NE5 29.90F FOG  
UVALDE CLOUDY 59 59 100 NE3 29.92F FOG  
DEL RIO CLOUDY 61 58 90 SE5 29.87F  

 
 
SOUTHEAST TEXAS  
 
CITY SKY/WX TMP DP RH WIND PRES REMARKS
 
COLLEGE STN CLOUDY 62 55 77 CALM 29.92F  
CALDWELL CLOUDY 58 54 89 CALM 29.92F  
CROCKETT NOT AVBL  
BRENHAM CLOUDY 62 60 92 CALM 29.93F  
HUNTSVILLE CLOUDY 64 61 90 CALM 29.93F  
CONROE CLOUDY 66 64 93 S5 29.94F FOG  
HOUSTON BUSH CLOUDY 68 66 93 E7 29.93F  
HOUSTON HOBBY CLOUDY 71 68 90 S7 29.93F FOG  
PERLAND CLOUDY 70 68 93 S8 29.95F FOG  
WHARTON CLOUDY 70 67 91 S8 29.93F FOG  

 
 
THE UPPER TEXAS COAST  
 
CITY SKY/WX TMP DP RH WIND PRES REMARKS
 
ORANGE CLOUDY 68 66 94 S6 30.00R FOG  
PORT ARTHUR CLOUDY 67 67 100 S10 29.97S  
GALVESTON FOG 65 63 93 SE10 29.95S VSB 1  
ANGLETON CLOUDY 71 68 90 S10 29.94S  
BAY CITY CLOUDY 70 69 98 S8 29.93S FOG  

 
 
TEXAS COASTAL BEND, RIO GRANDE PLAINS DEEP SOUTH TEXAS  
 
CITY SKY/WX TMP DP RH WIND PRES REMARKS
 
VICTORIA CLOUDY 70 68 93 S12 29.91S FOG  
BEEVILLE CLOUDY 72 72 100 S10 29.89S  
ROCKPORT FOG 67 67 100 SE9 29.90F VSB 1/4  
PORT ARANSAS FOG 63 63 100 SE8 29.92S VSB 1/4  
PORT LAVACA CLOUDY 72 68 87 S8 29.92S FOG  
CORPUS CHRISTI CLOUDY 70 69 97 S14 29.90R FOG  
KINGSVILLE NAS MOCLDY 71 68 90 SE9 29.88F  
COTULLA MOCLDY 61 56 83 N6 29.89R HAZE  
LAREDO MOCLDY 62 56 80 NE10 29.85S  
BROWNSVILLE CLOUDY 72 68 87 S13 29.89R  
PORT ISABEL CLOUDY 72 68 87 S12 29.89F  
HEBBRONVILLE CLOUDY 69 60 73 SE9 29.86F  
MCALLEN CLOUDY 73 68 84 SE16G23 29.86F  
WESLACO NOT AVBL  
FALFURRIAS PTSUNNY 67 66 96 SE8 29.85F  
EDINBURG CLOUDY 73 69 87 SE12G17 29.87F  

 
 
 
CLICK HERE TO GO TO PREVIOUS BULLETINS.

The Nexlab TX Page Main Text Page